TimeMST,TemperatureF,Dew PointF,Humidity,Sea Level PressureIn,VisibilityMPH,Wind Direction,Wind SpeedMPH,Gust SpeedMPH,PrecipitationIn,Events,Conditions,WindDirDegrees,DateUTC
12:54 AM,44.1,28.9,55,29.83,10.0,SSW,17.3,-,N/A,,Clear,210,2011-11-23 07:54:00
1:54 AM,44.1,28.9,55,29.84,10.0,SW,16.1,27.6,N/A,,Clear,220,2011-11-23 08:54:00
2:54 AM,45.0,28.0,52,29.83,10.0,SW,15.0,25.3,N/A,,Clear,220,2011-11-23 09:54:00
3:54 AM,45.0,28.9,53,29.84,10.0,SW,20.7,-,N/A,,Clear,220,2011-11-23 10:54:00
4:54 AM,46.9,27.0,46,29.82,10.0,SW,17.3,28.8,N/A,,Clear,230,2011-11-23 11:54:00
5:54 AM,45.0,26.1,48,29.82,10.0,SSW,4.6,-,N/A,,Clear,200,2011-11-23 12:54:00
6:54 AM,43.0,26.1,51,29.81,10.0,SW,16.1,-,N/A,,Clear,230,2011-11-23 13:54:00
7:54 AM,39.9,26.1,58,29.81,10.0,SSW,12.7,-,N/A,,Clear,210,2011-11-23 14:54:00
8:54 AM,46.0,24.1,42,29.76,10.0,SW,5.8,-,N/A,,Clear,230,2011-11-23 15:54:00
9:54 AM,52.0,24.1,34,29.75,10.0,SW,18.4,-,N/A,,Clear,220,2011-11-23 16:54:00
12:54 PM,53.1,23.0,31,29.68,10.0,SW,24.2,32.2,N/A,,Clear,220,2011-11-23 19:54:00
1:54 PM,54.0,23.0,30,29.66,10.0,SW,19.6,25.3,N/A,,Clear,230,2011-11-23 20:54:00
2:54 PM,54.0,21.9,29,29.65,10.0,SW,19.6,26.5,N/A,,Clear,230,2011-11-23 21:54:00
3:54 PM,53.1,21.0,29,29.64,10.0,SSW,20.7,27.6,N/A,,Clear,210,2011-11-23 22:54:00
4:54 PM,51.1,21.9,32,29.63,10.0,SSW,12.7,-,N/A,,Clear,200,2011-11-23 23:54:00
5:54 PM,50.0,19.9,31,29.65,10.0,SSW,5.8,-,N/A,,Clear,200,2011-11-24 00:54:00
6:54 PM,51.1,19.9,29,29.64,10.0,SSW,17.3,26.5,N/A,,Clear,210,2011-11-24 01:54:00
8:54 PM,51.1,19.0,28,29.60,10.0,SW,17.3,-,N/A,,Clear,230,2011-11-24 03:54:00
9:54 PM,51.1,19.0,28,29.57,10.0,SW,23.0,31.1,N/A,,Clear,230,2011-11-24 04:54:00
10:54 PM,50.0,19.0,29,29.57,10.0,SW,20.7,28.8,N/A,,Clear,230,2011-11-24 05:54:00
11:54 PM,50.0,19.0,29,29.57,10.0,SW,18.4,-,N/A,,Clear,230,2011-11-24 06:54:00